Terminal Aerodrome Forecast
Issued by NWS Central Illinois

Home | Current Version | Previous Version | Text Only | Print | Product List | Glossary On
Versions: 1 2 3 4 5 6 7 8 9 10 11 12 13 14
000
FTUS43 KILX 291127
TAFPIA
TAF
KPIA 291127Z 2912/3012 19008KT P6SM VCSH BKN070
     FM292100 19005KT P6SM OVC035
     FM300900 18004KT 3SM BR OVC025=

USA.gov is the U.S. government's official web portal to all federal, state and local government web resources and services.